アトラス彗星

C/2019 Y1 ( ATLAS )

English version
Home page
Updated on April 3, 2020

---------------------------------------------------------------------

・ プロフィール

発見日 2019年12月16日
発見光度 17.9等
発見者 Asteroid Terrestrial-Impact Last Alert System (ATLAS) search program

・ 写真集

・ 軌道要素

Epoch 2020 Mar. 12.0 TT = JDT 2458920.5
T 2020 Mar. 15.56442 TT                                 Rudenko
q   0.8377713            (2000.0)            P               Q
z  +0.0043567      Peri.   57.50204     +0.33293077     -0.80028800
 +/-0.0000073      Node    31.36764     +0.12451721     -0.48692213
e   0.9963501      Incl.   73.34665     +0.93469384     +0.34992280
From 255 observations 2019 Dec. 16-2020 Mar. 18, mean residual 0".6.

・ 星図

・ 光度変化

        m1 = 9.0 + 5 logΔ + 25.0 log r

---------------------------------------------------------------------

軌道要素はM.P.E.C. 2020-F67に掲載されたものです。
星図はステラナビゲータ Ver.10 (アストロアーツ) で作成したものです。
光度グラフはComet for Windowsで作成したものです。

---------------------------------------------------------------------

Copyright(C) Seiichi Yoshida (comet@aerith.net). All rights reserved.